Location: �bnet
(46.9957°N, 8.4908°E)
Time: 01:16:15
(UTC+00:00)

Cosmos 1908 Rocket - Pass Details

Date: 11 May 2021
Orbit: 605 x 632 km, 82.5° (Epoch: 23 June)

Event Time Altitude Azimuth Distance (km) Brightness Sun altitude
Rises 23:13:18 0° 345° (NNW) 2,940 8.3 -24.8°
Reaches altitude 10° 23:15:36 10° 340° (NNW) 2,027 7.1 -24.9°
Enters shadow 23:19:43 48° 276° (W) 835 4.2 -24.9°
